Temperature
30 30 30 30 30 30 30 31 31 31 30 29 28 28 26 25 24 23 23 22 22 21 21 20 20 20 19 19 19 19 18 18 18 18 17 17 17 16 16 16 16 16 16 16
28 29 29 29 29 29 30 30 30 30 29 29 27 26 25 24 24 23 22 22 21 21 20 20 20 19 19 19 19 19 18 18 18 18 17 17 16 16 16 16 16 16 16 15
28 28 28 28 29 29 29 29 30 29 29 28 27 26 25 24 23 22 22 21 21 20 20 20 19 19 19 19 19 18 18 18 18 17 17 17 16 16 16 16 16 15 15 15
28 27 26 28 29 28 28 28 28 28 27 27 26 24 23 23 22 21 21 21 20 20 20 20 19 19 19 19 18 18 18 18 17 17 17 17 16 16 16 16 15 15 15 15
27 27 27 27 27 28 27 27 27 27 26 26 25 24 24 22 21 21 20 20 20 20 20 19 19 19 19 18 18 18 18 17 17 17 17 16 16 16 16 15 15 15 14 14
26 26 26 27 27 26 27 26 26 26 25 25 25 27 25 21 20 20 19 19 19 19 19 19 18 18 18 18 18 18 18 17 17 17 17 16 16 16 15 15 15 14 14 14
26 26 26 25 25 25 25 25 24 24 24 24 24 24 22 20 20 19 19 19 18 18 18 18 18 18 18 18 17 17 17 17 17 17 17 16 16 15 15 15 14 14 14 14
25 25 25 24 24 25 24 22 22 22 22 22 21 20 20 20 19 19 19 18 18 18 18 18 18 18 17 17 17 17 17 17 16 16 16 16 16 15 15 14 14 14 14 14
24 24 22 21 22 21 21 21 21 21 21 21 20 20 20 19 19 18 18 18 18 18 17 17 17 17 17 17 17 17 16 16 16 16 16 16 15 15 15 14 14 14 14 14
22 22 21 21 20 20 20 20 20 20 20 20 20 20 19 19 18 18 18 17 17 17 17 17 17 17 17 17 17 16 16 16 16 16 16 15 15 15 14 14 14 14 14 14
21 21 21 20 19 19 19 19 19 19 19 19 19 19 19 18 18 17 17 17 17 17 16 16 16 16 16 16 16 16 16 15 15 15 15 15 15 14 14 14 14 14 14 13
21 20 20 19 19 18 18 18 19 18 18 18 18 18 18 18 17 17 17 17 16 16 16 16 16 16 16 16 16 15 15 15 15 15 15 15 14 14 14 14 14 14 13 13
18 18 18 18 18 18 18 18 18 18 18 18 17 17 17 17 17 17 17 16 16 16 16 15 15 15 15 15 15 15 15 15 14 14 14 14 14 14 14 14 14 13 13 13
17 17 17 17 17 17 17 17 17 17 17 17 17 17 17 16 16 16 16 16 16 16 15 15 15 15 15 15 15 14 14 14 14 14 14 13 13 13 13 13 13 13 13 13
16 16 17 17 16 16 16 16 16 16 16 16 16 16 16 16 16 16 16 15 15 15 15 15 14 14 15 15 14 14 14 14 14 14 13 13 13 13 13 13 13 12 12 12
16 16 16 16 16 16 16 16 16 16 16 16 16 16 16 16 16 15 15 15 15 15 15 14 14 14 14 14 14 14 13 13 13 13 13 13 13 13 13 13 12 12 12 12
15 15 15 15 15 16 16 16 15 15 15 16 16 15 15 15 15 15 15 15 15 14 14 14 14 14 14 14 14 14 14 14 13 13 13 13 13 13 13 12 12 12 12 12
14 14 14 15 15 15 15 15 15 15 15 15 15 15 15 15 15 15 15 14 14 14 13 13 14 13 13 13 13 14 14 13 13 13 13 13 12 12 12 12 12 12 12 12
14 14 14 14 14 14 14 14 14 14 14 14 14 14 14 14 14 14 14 14 14 13 13 13 13 13 13 13 13 13 13 13 13 12 12 12 12 12 12 12 12 12 11 11
13 13 13 13 14 14 14 14 14 14 14 14 14 14 14 14 14 14 13 13 13 13 13 13 13 13 13 13 13 13 13 13 13 12 12 12 12 12 12 12 11 11 11 11
13 13 13 13 13 13 13 13 13 13 13 13 13 13 13 13 13 13 13 13 13 13 13 13 13 12 12 12 12 12 12 12 12 12 12 12 12 12 11 11 11 11 11 11
13 13 13 13 13 13 13 13 13 13 13 13 13 13 13 13 13 13 13 13 13 13 13 12 12 12 12 12 12 12 12 12 12 12 11 11 11 11 11 11 11 11 11 10
12 12 12 12 12 12 13 13 13 13 13 13 13 13 13 13 13 13 13 12 12 12 12 12 12 12 12 11 11 11 11 11 11 11 11 11 11 11 11 11 10 10 10 10
12 12 12 12 12 12 12 12 12 12 12 12 12 12 12 12 12 12 12 12 12 12 12 11 11 11 11 11 11 11 11 11 11 11 11 11 11 11 10 10 10 10 10 10
12 12 12 12 12 12 12 12 12 12 12 12 12 12 12 12 12 12 12 12 11 11 11 11 11 11 11 11 11 11 11 11 11 11 10 10 10 10 10 10 10 10 9 9
12 12 12 12 12 12 12 12 12 12 12 12 12 12 12 12 11 11 11 11 11 11 11 11 11 11 11 11 11 10 10 10 10 10 10 10 10 10 10 10 9 9 9 9
12 12 12 12 12 12 12 12 12 12 12 12 12 11 11 11 11 11 11 11 11 11 10 10 10 11 11 10 10 10 10 10 10 10 10 10 10 9 9 9 9 9 9 9
Wind_Speed
8 5 8 10 11 12 14 13 12 9 8 5 5 4 4 5 6 6 6 6 7 7 8 8 8 8 7 7 7 7 7 6 6 4 4 4 3 3 3 2 2 2 1 1
10 9 9 9 10 12 12 11 11 8 6 3 3 4 5 6 6 5 5 5 6 6 7 7 7 7 8 8 7 7 6 6 5 5 4 4 4 3 3 2 2 2 2 1
12 11 11 13 11 12 11 10 11 10 6 5 5 5 5 5 5 4 4 4 5 5 6 6 6 7 7 7 7 7 6 6 6 5 5 5 5 4 4 3 3 2 2 2
10 10 16 8 5 7 9 9 7 5 5 6 5 4 4 4 4 4 3 3 3 4 4 5 5 6 6 7 7 7 7 6 6 6 6 5 5 5 5 4 3 3 2 2
10 13 12 8 7 8 9 8 6 6 6 5 5 6 5 4 3 3 3 3 3 4 4 4 5 5 6 7 7 7 7 7 7 7 6 6 5 5 4 4 3 3 3 3
10 13 13 7 5 4 7 9 6 6 7 6 6 7 5 3 2 2 2 2 2 3 3 4 4 5 6 6 7 7 7 7 7 7 6 6 5 5 4 4 4 4 3 3
12 12 7 2 3 6 9 3 4 5 5 6 5 1 3 2 2 2 2 2 2 2 3 3 4 4 5 5 5 5 6 6 6 6 6 6 6 6 5 5 5 4 4 4
9 11 7 3 3 4 1 3 2 4 4 3 2 3 3 2 2 2 3 2 2 2 2 2 3 5 5 4 4 4 5 6 6 6 6 6 6 6 6 6 6 6 5 5
4 2 3 3 1 1 1 0 2 3 2 2 3 3 2 2 2 2 2 2 2 2 2 2 2 3 4 4 3 4 5 5 6 5 5 6 7 7 7 6 6 6 5 5
3 2 2 1 1 1 1 1 1 2 2 2 2 3 2 2 2 2 2 2 3 3 3 2 2 3 3 3 4 4 5 5 5 5 6 6 5 6 6 6 6 6 5 5
5 3 2 2 0 1 1 1 1 1 1 1 2 2 2 2 2 2 2 3 3 3 3 3 3 3 3 3 4 5 5 5 5 5 5 5 5 4 5 4 4 5 5 5
5 3 3 3 1 1 1 2 1 1 1 1 1 2 2 2 2 3 3 3 3 4 4 4 4 4 3 3 5 5 5 6 5 5 5 5 5 4 1 2 2 3 4 5
4 4 3 3 3 2 2 2 2 2 2 2 2 2 2 2 2 3 3 3 4 4 4 4 4 4 4 4 5 6 6 6 5 5 5 5 5 5 4 3 3 4 5 5
3 3 4 3 3 3 3 3 3 3 3 2 2 2 2 2 3 3 3 3 3 3 3 3 4 4 3 3 5 6 6 5 5 5 5 5 5 5 5 5 4 4 4 5
4 4 4 3 3 3 3 3 3 3 3 3 3 3 3 3 3 3 3 3 3 3 3 3 4 4 3 4 5 5 5 5 4 5 5 5 5 5 5 5 4 4 3 3
3 3 3 3 4 4 4 4 4 4 4 4 4 4 4 4 3 3 3 3 3 3 3 4 4 3 3 4 4 5 4 4 4 4 5 4 5 5 5 4 4 4 4 3
3 4 3 4 4 5 5 5 5 5 5 5 5 4 4 4 4 4 3 3 3 3 3 3 3 3 4 4 4 4 4 4 6 5 4 4 5 5 5 4 4 4 4 3
4 4 4 5 4 5 5 5 5 5 5 5 5 5 5 5 5 4 3 3 3 3 3 3 3 4 4 4 3 3 3 4 4 4 4 4 5 5 5 5 5 5 5 4
3 3 4 4 4 4 5 5 5 5 5 5 6 6 6 6 5 4 4 4 4 4 3 3 3 4 3 3 3 3 3 4 4 4 4 4 5 5 5 5 5 5 5 4
3 3 3 4 4 4 5 5 5 5 6 6 6 6 6 5 4 4 4 4 3 2 2 2 3 3 2 2 3 3 4 4 4 4 4 4 5 5 5 6 6 6 6 5
1 2 3 3 3 3 3 4 4 5 6 5 5 5 4 4 3 4 4 3 1 1 1 2 2 1 1 1 4 3 3 3 3 3 4 4 5 5 5 6 5 5 5 5
1 1 2 2 2 3 3 3 3 4 4 4 4 4 3 3 3 3 3 1 1 1 1 1 1 1 0 2 2 2 2 2 3 3 3 4 4 5 5 5 5 5 5 5
2 1 2 2 2 3 3 3 3 3 3 3 3 3 3 2 2 2 1 1 1 1 1 1 2 2 1 2 2 2 2 2 3 3 3 4 4 4 5 5 5 5 5 5
2 2 2 2 2 2 3 3 3 2 2 1 1 1 2 2 2 1 1 3 2 1 1 3 3 2 4 2 2 2 2 2 3 3 3 4 4 4 4 4 4 4 4 5
2 2 2 3 2 2 2 2 2 1 1 1 1 2 1 1 1 2 2 3 3 2 1 2 4 3 3 2 2 2 2 2 2 3 3 3 4 4 4 4 4 4 5 4
2 2 3 3 3 2 2 2 2 1 1 1 2 2 2 2 3 2 2 3 3 2 0 0 1 2 1 1 1 2 2 2 3 3 3 3 3 4 4 4 5 5 4 4
2 1 1 2 2 3 3 2 2 2 2 2 2 2 2 2 2 2 2 1 1 0 0 1 1 1 1 2 2 2 2 3 3 4 3 3 4 4 4 4 4 4 5 5
Wind_Direction
239 226 213 215 215 215 226 243 251 245 235 200 188 177 156 148 146 148 156 166 171 173 170 173 174 174 179 183 181 178 179 180 178 173 174 181 180 173 168 167 160 151 161 172
222 220 214 219 219 218 226 235 241 238 230 187 163 147 142 144 147 151 163 172 176 181 179 179 183 184 180 179 176 178 181 179 174 174 174 178 176 172 169 170 176 162 170 173
222 215 221 227 224 223 225 231 237 238 225 175 169 165 160 158 155 153 164 172 183 190 189 188 190 189 185 179 173 177 179 178 176 176 178 182 182 178 182 186 182 181 190 188
224 213 232 227 212 221 225 233 237 238 206 192 180 166 162 163 161 161 164 174 188 193 190 194 194 188 185 179 177 178 181 182 182 183 184 183 183 186 191 191 191 200 201 190
225 226 226 215 210 216 225 228 225 215 196 182 169 165 158 143 148 168 173 179 189 199 193 190 187 182 186 189 184 184 186 186 187 189 186 186 190 195 195 191 194 204 200 198
225 234 233 214 179 212 226 224 204 197 187 179 183 208 164 137 161 163 151 158 174 187 182 181 181 186 192 198 197 196 193 190 188 188 188 191 193 196 195 200 201 205 198 206
225 232 230 110 159 196 223 229 153 179 182 189 204 247 126 153 155 155 156 156 161 171 179 183 182 187 196 200 208 204 194 190 189 185 188 197 197 201 197 200 204 207 203 209
226 231 221 94 171 213 2 52 153 170 177 181 152 131 144 150 152 157 157 161 166 166 172 176 183 191 198 200 205 201 197 194 197 195 196 194 197 204 207 204 203 204 206 212
243 231 77 100 122 54 12 143 172 172 162 161 166 170 162 171 177 180 175 173 182 182 181 179 190 200 208 202 193 199 204 205 203 197 199 200 202 207 204 204 212 212 212 215
226 182 146 126 95 60 58 102 135 157 160 176 195 196 194 194 191 191 200 198 197 199 199 202 207 216 219 205 189 194 205 210 204 202 203 204 212 215 215 207 215 219 221 225
228 218 219 206 235 39 52 79 80 94 175 207 208 212 214 206 198 209 215 219 218 218 219 221 220 227 224 223 211 204 208 216 213 213 206 208 218 230 231 230 236 237 235 236
241 216 237 232 253 297 297 296 300 293 282 279 269 251 242 233 221 228 227 220 223 227 230 233 232 236 230 224 225 212 213 216 217 214 204 210 209 217 257 257 201 233 263 271
263 265 267 255 255 271 283 283 277 276 271 272 281 273 259 253 246 242 233 225 225 229 233 236 238 239 238 226 225 227 223 219 221 219 213 216 216 216 220 226 210 227 242 254
248 245 240 248 264 274 284 287 286 285 277 274 278 268 261 259 255 246 244 245 242 239 240 243 246 249 246 229 222 227 229 217 218 217 220 221 221 222 222 224 225 226 219 215
254 252 243 252 259 263 268 264 266 264 270 274 269 262 256 253 251 249 252 244 237 239 243 245 246 251 247 227 218 221 227 222 220 224 222 220 222 229 230 226 230 232 227 200
269 248 242 248 255 261 261 257 261 264 267 267 266 264 259 253 250 248 245 233 229 237 241 242 244 248 239 225 215 217 221 207 218 230 225 219 224 232 234 231 232 231 232 230
247 250 256 261 261 263 264 264 267 268 268 268 269 269 262 255 250 244 246 246 239 236 237 238 237 233 230 225 220 220 217 203 201 223 230 228 232 237 236 235 239 241 242 230
251 255 261 265 268 270 271 273 270 266 268 273 269 259 255 251 251 248 240 233 229 234 240 239 238 230 223 220 225 229 222 222 220 220 225 230 233 235 236 236 237 241 243 220
239 246 254 263 269 270 269 269 269 270 269 267 260 255 255 251 246 237 227 222 225 236 242 238 223 223 216 209 228 225 227 221 217 218 223 218 230 235 236 239 242 242 245 237
237 246 252 259 267 270 266 264 264 266 265 262 257 254 253 246 233 219 220 233 242 261 248 231 228 235 229 220 242 234 231 231 230 228 228 232 235 237 240 243 244 246 248 246
258 264 261 266 276 281 277 271 269 267 266 261 256 255 253 242 220 212 223 230 225 247 234 192 221 245 249 246 244 241 235 235 236 237 239 241 244 246 248 252 254 254 253 250
337 327 315 306 306 306 297 284 279 274 265 259 258 261 251 231 217 213 220 247 208 132 209 196 223 71 35 250 241 241 236 243 249 250 250 250 249 249 250 251 253 256 254 252
11 359 343 333 325 316 313 306 293 279 269 259 250 240 226 219 217 215 209 179 185 151 203 95 84 104 243 244 264 259 247 249 254 253 253 253 251 249 248 247 245 244 247 243
8 11 6 353 329 317 322 323 320 308 295 269 223 194 195 184 179 181 110 119 124 161 164 101 126 173 241 243 262 262 257 257 257 260 262 260 260 255 251 250 245 239 238 238
354 360 4 351 339 340 341 337 329 326 348 48 73 92 101 121 134 116 113 118 127 154 123 135 162 211 240 261 250 252 255 264 277 282 281 279 276 271 262 257 256 254 251 250
8 13 17 4 359 349 344 345 342 2 39 56 56 69 76 86 101 110 118 123 121 133 177 178 177 221 258 277 272 269 271 261 261 263 273 276 274 267 261 260 259 259 258 256
27 29 15 11 15 6 359 2 14 22 35 57 68 67 69 74 86 99 108 109 99 97 247 253 251 255 274 289 295 290 285 281 277 275 272 266 266 265 263 260 262 264 265 262
Height
1463 1461 1463 1467 1470 1471 1473 1471 1473 1473 1474 1478 1481 1485 1489 1491 1494 1496 1498 1500 1502 1504 1506 1508 1510 1511 1513 1515 1517 1518 1519 1520 1520 1521 1522 1522 1523 1523 1524 1524 1524 1524 1524 1524
1470 1465 1465 1469 1469 1470 1471 1470 1470 1471 1475 1476 1481 1486 1489 1491 1493 1495 1497 1499 1501 1503 1505 1506 1508 1509 1511 1513 1514 1515 1516 1518 1518 1519 1520 1521 1521 1522 1522 1522 1522 1522 1522 1523
1471 1467 1469 1475 1468 1468 1469 1468 1469 1472 1474 1477 1482 1485 1488 1491 1493 1495 1496 1498 1500 1501 1503 1504 1506 1507 1508 1510 1511 1512 1514 1515 1516 1517 1518 1519 1519 1520 1520 1520 1520 1520 1520 1520
1468 1475 1485 1469 1463 1465 1468 1469 1469 1471 1474 1478 1482 1486 1488 1491 1493 1494 1495 1497 1498 1499 1501 1502 1504 1505 1506 1507 1508 1509 1511 1512 1514 1515 1516 1516 1517 1517 1518 1518 1518 1519 1518 1519
1468 1473 1471 1467 1465 1466 1469 1471 1471 1472 1475 1478 1482 1484 1487 1490 1492 1493 1494 1495 1496 1498 1499 1500 1502 1502 1504 1505 1506 1507 1508 1510 1511 1512 1513 1513 1514 1515 1515 1516 1516 1517 1517 1516
1468 1473 1474 1465 1463 1467 1469 1473 1472 1474 1476 1478 1480 1478 1483 1489 1490 1492 1493 1494 1495 1496 1497 1498 1499 1500 1501 1503 1504 1504 1505 1507 1508 1509 1509 1510 1511 1512 1513 1513 1514 1514 1514 1514
1467 1469 1463 1465 1467 1469 1476 1473 1473 1475 1477 1479 1479 1480 1485 1487 1489 1490 1491 1492 1493 1494 1495 1496 1496 1498 1499 1500 1501 1502 1503 1504 1505 1505 1506 1507 1508 1509 1510 1510 1511 1511 1511 1511
1464 1468 1469 1468 1468 1470 1472 1475 1475 1477 1479 1480 1482 1483 1485 1486 1488 1489 1490 1491 1492 1492 1493 1494 1494 1495 1496 1497 1498 1499 1499 1500 1501 1502 1503 1504 1505 1506 1506 1507 1507 1508 1508 1508
1463 1468 1471 1471 1472 1475 1476 1476 1477 1478 1479 1481 1482 1483 1485 1486 1487 1488 1489 1489 1490 1491 1491 1492 1492 1493 1493 1494 1495 1495 1496 1497 1498 1498 1499 1500 1501 1501 1502 1503 1504 1505 1505 1505
1468 1468 1471 1473 1474 1475 1476 1477 1478 1479 1480 1481 1482 1483 1484 1485 1486 1486 1487 1488 1488 1489 1489 1489 1489 1490 1491 1491 1491 1492 1494 1495 1495 1496 1496 1497 1498 1499 1499 1499 1500 1501 1502 1502
1468 1471 1472 1473 1475 1476 1476 1477 1478 1479 1480 1481 1481 1482 1483 1483 1484 1484 1485 1486 1486 1486 1486 1486 1486 1487 1486 1488 1489 1489 1491 1491 1492 1493 1493 1494 1494 1495 1496 1496 1497 1497 1497 1498
1466 1471 1472 1474 1475 1476 1476 1476 1477 1478 1479 1480 1480 1481 1481 1481 1482 1482 1482 1483 1483 1484 1484 1484 1483 1483 1483 1484 1485 1485 1487 1488 1489 1490 1490 1490 1490 1491 1491 1492 1492 1492 1493 1493
1471 1472 1473 1474 1474 1475 1475 1476 1476 1477 1477 1477 1478 1479 1479 1479 1480 1480 1480 1480 1480 1481 1481 1480 1480 1480 1481 1480 1482 1483 1484 1485 1486 1486 1486 1487 1487 1488 1488 1488 1488 1488 1488 1488
1471 1472 1472 1473 1474 1474 1474 1474 1474 1475 1475 1476 1476 1476 1476 1477 1477 1477 1478 1478 1478 1478 1478 1478 1477 1477 1477 1477 1478 1480 1481 1481 1481 1482 1483 1484 1484 1484 1484 1484 1484 1483 1484 1484
1470 1470 1471 1471 1472 1472 1472 1472 1473 1473 1473 1473 1474 1474 1474 1474 1474 1475 1475 1475 1475 1475 1475 1475 1474 1474 1474 1474 1475 1476 1477 1478 1478 1479 1480 1480 1480 1481 1481 1480 1480 1480 1480 1479
1468 1468 1469 1469 1470 1470 1471 1471 1470 1470 1471 1471 1471 1471 1471 1471 1471 1472 1472 1472 1472 1472 1472 1472 1471 1471 1471 1471 1472 1473 1474 1474 1475 1475 1476 1476 1476 1477 1477 1477 1477 1477 1476 1476
1466 1466 1466 1467 1467 1468 1468 1468 1469 1468 1468 1468 1468 1468 1468 1468 1468 1468 1468 1469 1469 1469 1469 1469 1468 1468 1468 1468 1469 1470 1470 1471 1471 1472 1472 1473 1473 1473 1474 1474 1474 1473 1473 1473
1464 1464 1465 1465 1465 1465 1466 1466 1466 1466 1466 1466 1465 1465 1465 1465 1465 1465 1465 1466 1466 1466 1466 1466 1465 1465 1465 1465 1465 1466 1467 1468 1468 1469 1469 1469 1469 1470 1470 1470 1470 1470 1469 1469
1460 1461 1462 1462 1462 1463 1463 1463 1463 1463 1463 1463 1463 1462 1462 1462 1462 1462 1462 1462 1462 1462 1462 1462 1462 1462 1462 1462 1462 1463 1464 1465 1465 1465 1465 1465 1466 1466 1466 1466 1466 1466 1466 1466
1457 1457 1458 1458 1459 1460 1460 1460 1460 1460 1460 1459 1459 1458 1458 1458 1458 1459 1459 1459 1459 1459 1459 1459 1459 1460 1459 1459 1459 1460 1461 1462 1462 1462 1462 1463 1463 1463 1463 1463 1463 1463 1463 1463
1454 1454 1454 1455 1456 1457 1457 1457 1457 1456 1456 1455 1455 1455 1455 1455 1455 1456 1456 1457 1457 1456 1456 1456 1456 1456 1457 1456 1457 1458 1459 1459 1459 1459 1460 1460 1460 1460 1460 1460 1459 1459 1459 1459
1453 1453 1453 1453 1453 1454 1454 1454 1454 1453 1452 1452 1452 1452 1452 1453 1453 1453 1454 1454 1454 1454 1454 1454 1455 1454 1454 1454 1456 1456 1456 1456 1457 1457 1457 1456 1456 1456 1456 1456 1456 1456 1455 1455
1453 1453 1452 1452 1452 1452 1452 1452 1452 1451 1450 1450 1450 1450 1450 1451 1451 1452 1452 1453 1452 1452 1452 1453 1453 1452 1452 1453 1454 1454 1454 1454 1454 1454 1454 1453 1453 1453 1453 1453 1452 1452 1452 1451
1453 1452 1452 1452 1452 1452 1451 1451 1450 1449 1449 1448 1448 1448 1449 1449 1450 1450 1450 1450 1450 1451 1451 1451 1451 1451 1451 1452 1452 1452 1452 1452 1452 1451 1451 1451 1450 1450 1450 1449 1449 1448 1448 1448
1453 1452 1452 1452 1452 1451 1451 1450 1449 1449 1448 1448 1447 1448 1448 1448 1449 1449 1449 1449 1449 1450 1450 1450 1450 1450 1450 1450 1450 1450 1450 1450 1449 1449 1448 1448 1447 1447 1446 1446 1446 1445 1445 1444
1453 1453 1452 1452 1451 1451 1451 1450 1449 1449 1448 1448 1447 1447 1447 1447 1447 1448 1448 1448 1449 1449 1449 1449 1449 1449 1449 1449 1448 1448 1448 1447 1447 1446 1445 1444 1444 1443 1443 1442 1442 1441 1441 1440
1454 1453 1453 1452 1452 1451 1450 1450 1449 1449 1449 1448 1448 1448 1448 1448 1448 1448 1448 1448 1448 1448 1448 1448 1447 1447 1447 1447 1446 1446 1445 1445 1444 1443 1442 1441 1440 1439 1439 1438 1438 1438 1437 1437